Regional Weather Roundup
Issued by NWS

Home | Current Version | Previous Version | Graphics & Text | Print | Product List | Glossary On
Versions: 1 2 3 4 5 6 7 8 9 10 11 12 13 14 15 16 17 18 19 20 21 22 23 24 25 26 27 28 29 30 31 32 33 34 35 36 37 38 39 40 41 42 43 44 45 46 47 48 49 50
000
ASUS45 KTFX 191410
RWRMT
MONTANA REGIONAL WEATHER ROUNDUP
NATIONAL WEATHER SERVICE GREAT FALLS MT
700 AM MST FRI JAN 19 2018

NOTE: "FAIR" INDICATES FEW OR NO CLOUDS BELOW 12000 FEET WITH NO
SIGNIFICANT WEATHER AND/OR OBSTRUCTIONS TO VISIBILITY.

MTZ001>007-043-191500-
WEST OF THE DIVIDE

CITY           SKY/WX    TMP DP  RH WIND       PRES   REMARKS
KALISPELL      MOCLDY    26  25  96 CALM      29.73S FOG
MISSOULA       FOG       32  31  96 W3        29.77R VSB 1/4
BUTTE          LGT SNOW  30  28  92 NW3       29.68S FOG
MULLAN PASS    CLOUDY    22  21  96 SW8       29.69  WCI  12
ANACONDA         N/A     30  30 100 CALM      29.70S
DEER LODGE       N/A     30  30 100 CALM      29.73R
EUREKA           N/A     36  27  69 MISG      29.71S
HAMILTON         N/A     32  32 100 CALM      29.75R
PLAINS           N/A     33  30  89 CALM      29.80R
RONAN            N/A     34  30  86 S6        29.77R WCI  29
$$

MTZ008-052>055-191500-
SOUTHWEST MONTANA

CITY           SKY/WX    TMP DP  RH WIND       PRES   REMARKS
BOZEMAN        CLOUDY    33  32  96 W7        29.67F WCI  27
DILLON         CLOUDY    27  27 100 S10       29.65S WCI  17
ENNIS          CLOUDY    37  28  70 S10G16    29.71S WCI  30
W YELLOWSTONE  LGT SNOW  32  32 100 SW6       29.69F WCI  26
THREE FORKS      N/A     33  32  96 CALM      29.70F
TWIN BRIDGES     N/A     35  27  73 CALM      29.70
$$

MTZ009-010-012-014-046-048-049-054-191500-
EAST SLOPES AND CENTRAL MONTANA

CITY           SKY/WX    TMP DP  RH WIND       PRES   REMARKS
CUT BANK       FAIR      32  22  66 W26G37    29.57R WCI  18
GREAT FALLS    MOCLDY    35  28  75 SW9       29.63S WCI  28
MALMSTROM AFB  CLOUDY    37  30  75 W9        29.63S WCI  30
HELENA         CLOUDY    34  33  96 W5        29.70S
AUGUSTA        MOCLDY    33  25  71 W20       29.62R WCI  22
BOWMANS CRNR   CLOUDY    32  28  86 S16       29.63R WCI  21
CHOTEAU          N/A     37  21  52 SW12G20   29.63S WCI  30
FAIRFIELD      CLOUDY    35  24  64 SW12      29.62S WCI  27
POWER          CLOUDY    33  27  77 SW18      29.62R WCI  22
RAYNESFORD     CLOUDY    37  29  70 CALM      29.63S
ULM            CLOUDY    35  29  77 SW3       29.64S
WHITE SULPHUR    N/A     34  28  80 W3        29.65S
$$

MTZ011-013-016-021-045-047-050-051-191500-
NORTH CENTRAL MONTANA

CITY           SKY/WX    TMP DP  RH WIND       PRES   REMARKS
HAVRE          FAIR      34  31  88 SW14      29.63S WCI  25
LEWISTOWN      CLOUDY    35  33  92 SW10      29.64R WCI  27
N BAR RANCH    CLOUDY    34  30  86 CALM      29.66R
CHINOOK          N/A     34  30  86 W5        29.63S
DENTON         CLOUDY    34  32  93 MISG      29.61R
GEYSER         CLOUDY    36  30  79 W16       29.60F WCI  26
GRASS RANGE    CLOUDY    37  32  82 W17       29.60R WCI  27
STANFORD       CLOUDY    34  32  93 CALM      29.61F
WINIFRED       CLOUDY    35  33  92 W10       29.64R WCI  27
$$

MTZ017>020-022>027-061-062-191500-
NORTHEAST MONTANA

CITY           SKY/WX    TMP DP  RH WIND       PRES   REMARKS
GLASGOW        FAIR      36  28  73 W7        29.60S WCI  30
GLENDIVE       CLOUDY    37  31  78 W13       29.61S WCI  29
JORDAN           N/A     35  31  85 W3        29.63F
MALTA          PTCLDY    32  28  86 SW8       29.62S WCI  25
SIDNEY         MOCLDY    39  30  70 W10       29.59R
WOLF POINT     FAIR      37  31  78 CALM      29.61R
PLENTYWOOD       N/A     36  28  75 SW8       29.54R WCI  29
POPLAR           N/A     36  30  80 SW7       29.59F WCI  30
SCOBEY           N/A     34  23  64 W9        29.56  WCI  27
$$

MTZ028>42-056>058-191500-
SOUTHCENTRAL AND SOUTHEAST MONTANA

CITY           SKY/WX    TMP DP  RH WIND       PRES   REMARKS
BAKER          FAIR      33  29  85 W12       29.64R WCI  24
BILLINGS       CLOUDY    34  34 100 SW12      29.68F WCI  25
LIVINGSTON     LGT RAIN  34  34 100 N10       29.65F WCI  26
MILES CITY     LGT RAIN  33  31  92 SW12      29.68S WCI  24
BIG TIMBER     CLOUDY    36  34  93 W13       29.69S WCI  27
EKALAKA          N/A     31  25  78 W5        29.67
FORSYTH          N/A     36  36 100 SW3       29.70R
HARLOWTON      CLOUDY    34  32  94 SW7       29.66S WCI  27
LAUREL           N/A     34  34 100 W7        29.70S WCI  28
ROUNDUP          N/A     35  31  86 S10       29.61F WCI  27
$$

REGIONAL REPORTS...DAKOTAS

CITY           SKY/WX    TMP DP  RH WIND       PRES   REMARKS
WILLISTON      MOCLDY    39  23  52 W13       29.57R WCI  32
MINOT          CLOUDY    42  29  59 W17       29.48R
DICKINSON      FAIR      33  28  81 W12       29.55F WCI  24
BEACH          MOCLDY    36  34  93 NW17      29.64R WCI  25
CROSBY         FAIR      36  30  80 W15       29.52R WCI  26
TIOGA          FAIR      36  32  87 W17       29.54R WCI  25
WATFORD CITY   FAIR      39  30  70 W13       29.57R WCI  32
BISMARCK       FAIR      22  20  92 W7        29.56R WCI  13
GRAND FORKS    CLOUDY    30  27  88 S6        29.41F WCI  24
FARGO          FAIR      27  23  85 S9        29.49S WCI  18
BUFFALO SD       N/A     33  26  75 NW10      29.55R WCI  25
RAPID CITY     FAIR      50  24  36 W12       29.55R
$$

REGIONAL REPORTS...WYOMING/IDAHO/WASHINGTON

CITY           SKY/WX    TMP DP  RH WIND       PRES   REMARKS
GILLETTE       FAIR      35  28  75 NW14      29.69R WCI  26
SHERIDAN       CLOUDY    37  33  85 W9        29.72S WCI  30
BUFFALO WY     MOCLDY    35  29  78 N10       29.71R WCI  27
CODY           FLURRIES  32  31  96 NE7       29.70R WCI  26
YELLOWSTONE LA   N/A     29  27  92 W6        29.72S WCI  23
IDAHO FALLS    LGT RAIN  35  34  96 S20       29.79R WCI  24
SALMON         LGT RAIN  33  33 100 N3        29.71S
BOISE          LGT RAIN  38  36  92 W7        29.85R
SPOKANE        FOG       32  32 100 S10       29.80S VSB 1   WCI  24
$$

REGIONAL REPORTS...ALBERTA

CITY           SKY/WX    TMP DP  RH WIND       PRES   REMARKS
CALGARY        PTCLDY    27  10  50 SW6       29.51R WCI  20
CARDSTON         N/A     34  21  60 W10G17      N/A  WCI  26
EDMONTON       CLOUDY    30  18  59 SW8       29.44S WCI  23
FORT MCMURRAY  CLOUDY    32  28  86 W6        29.30R WCI  26
HIGH LEVEL     FLURRIES  18  14  86 N12G18    29.40R WCI   5
LETHBRIDGE     CLEAR     32  21  64 SW10      29.60S WCI  24
LLOYDMINSTER   PTCLDY    28  21  74 W14       29.38S WCI  17
MEDICINE HAT   PTCLDY    32  23  69 W14       29.55S WCI  22
MILK RIVER       N/A     28  21  74 N20G26      N/A  WCI  15
ONEFOUR          N/A     27  19  74 W9          N/A  WCI  17
PEACE RIVER    MOCLDY    27  23  86 CALM      29.39S
PINCHER CREEK  CLEAR     28  23  80 W18G24    29.57S WCI  16
WATERTON GATE    N/A     32  21  64 SW25G36     N/A  WCI  19
$$

REGIONAL REPORTS...SASKATCHEWAN

CITY           SKY/WX    TMP DP  RH WIND       PRES   REMARKS
CORONACH         N/A     34  27  75 W15         N/A  WCI  24
CYPRESS HILLS    N/A     30  14  51 W12G18      N/A  WCI  21
ESTEVAN        MOCLDY    34  28  80 W10       29.48R WCI  26
MOOSE JAW        N/A     28  23  80 W15         N/A  WCI  17
PRINCE ALBERT  LGT SNOW  30  28  93 W9        29.35  WCI  22
REGINA         PTCLDY    25  21  86 W13       29.46S WCI  13
ROCKGLEN         N/A     28  23  80 W14         N/A  WCI  17
SASKATOON      PTCLDY    21  19  93 SW9       29.42S WCI  11
SWIFT CURRENT  PTCLDY    28  21  74 W17       29.49R WCI  16
VAL MARIE        N/A     32  21  64 NW14        N/A  WCI  22
$$



USA.gov is the U.S. government's official web portal to all federal, state and local government web resources and services.